Погода в Диадеме

Бразилия     23°41′20″S   46°37′32″W
темп.,
°C
ветер,
м/с
пор.,
м/с
влажн.,
%
обл.,
%
осадки,
мм/ч
давл.,
гПа
погр.,
м
26 февраля, пт
пт2600:00+19юв368824 0.0 1012446
03:00+19ююв248747 0.1 1011365
06:00+18ююв249051 0.4 1011277
09:00+21вюв237875 0.9 1013538
12:00+26юв225981 1.4 10131053
15:00+23ююв567787 11.5 1011622
18:00+21ююв588697 6.1 1011459
21:00+20ююв468999 8.6 1014369
27 февраля, сб
сб2700:00+19ююв239099 0.0 1013257
03:00+19ю238998 0.0 1012195
06:00+19ююв128789 0.1 1013213
09:00+23вюв227092 0.5 1015436
12:00+25вюв446286 2.8 1014990
15:00+24юв457388 9.2 1012755
18:00+21юв3584100 6.5 1012425
21:00+21вюв1383100 11.8 1014328
28 февраля, вс
вс2800:00+21вюв2477100 0.4 1014381
03:00+20в247688 0.4 1013337
06:00+20вюв137940 0.0 1014281
09:00+24всв236351 0.1 1015616
12:00+27ссв564343 0.3 10141350
15:00+29ссв243845 0.4 10121978
18:00+23ююв457334 3.1 1011437
21:00+22вюв357355 5.4 1013277
1 марта, пн
пн100:00+22в2473100 0.0 1013263
03:00+22св2571100 0.0 1011357
06:00+21с137682 0.3 1012232
09:00+25ссз355754 0.4 1013852
12:00+29с444523 0.7 10121801
15:00+28всв134950 2.9 10101486
18:00+24ююв3367100 1.9 1010435
21:00+23юв2269100 2.0 1012240
2 марта, вт
вт200:00+23в016873 0.0 1012129
03:00+23ссз127080 0.1 1012138
06:00+22с246896 0.0 1013302
09:00+25ссз465898 0.0 1014906
12:00+29ссз4545100 0.0 10131533
15:00+29ссз234699 0.6 10111705
18:00+25ю116591 4.5 1011451
21:00+24вюв126996 5.6 1013498